GEC8112 EGCC-EDDF

Flight info

Callsign GEC8112
Flight time 1h 18m
Altitude 37000
Route SONEX L975 DESIG L603 DOLAS DCT NAVPI DCT NOLRU DCT DIXAT DIXAT1D
Aircraft MD11/H-SDE1E2E3FGHIJ2J3J4J5M1RWXY/LB1D1

Departure

Time 2026-04-18 05:48
Airport Manchester Airport (EGCC)

Arrival

Time 2026-04-18 07:07
Airport Frankfurt Main Airport (EDDF)
Time Latitude Longitude Altitude Speed Heading
2026-04-18 05:33 53.36314 -2.28448 262 ft 0 kts 224°
2026-04-18 05:39 53.36322 -2.28434 264 ft 4 kts 225°
2026-04-18 05:39 53.36340 -2.28404 265 ft 3 kts 225°
2026-04-18 05:39 53.36357 -2.28379 266 ft 4 kts 193°
2026-04-18 05:40 53.36376 -2.28379 267 ft 4 kts 146°
2026-04-18 05:40 53.36396 -2.28407 266 ft 4 kts 134°
2026-04-18 05:40 53.36403 -2.28419 267 ft 0 kts 135°
2026-04-18 05:42 53.36394 -2.28403 267 ft 5 kts 135°
2026-04-18 05:42 53.36347 -2.28324 264 ft 13 kts 135°
2026-04-18 05:43 53.36275 -2.28203 262 ft 15 kts 135°
2026-04-18 05:43 53.36201 -2.28080 262 ft 17 kts 135°
2026-04-18 05:43 53.36102 -2.27914 262 ft 22 kts 135°
2026-04-18 05:43 53.35981 -2.27838 262 ft 18 kts 184°
2026-04-18 05:44 53.35872 -2.27833 264 ft 10 kts 151°
2026-04-18 05:44 53.35821 -2.27751 263 ft 12 kts 134°
2026-04-18 05:44 53.35755 -2.27663 263 ft 12 kts 153°
2026-04-18 05:44 53.35685 -2.27610 263 ft 10 kts 150°
2026-04-18 05:45 53.35624 -2.27533 263 ft 11 kts 142°
2026-04-18 05:45 53.35601 -2.27503 263 ft 2 kts 142°
2026-04-18 05:45 53.35557 -2.27445 263 ft 15 kts 142°
2026-04-18 05:45 53.35440 -2.27283 262 ft 26 kts 140°
2026-04-18 05:46 53.35306 -2.27191 254 ft 20 kts 199°
2026-04-18 05:46 53.35211 -2.27371 251 ft 21 kts 233°
2026-04-18 05:46 53.35120 -2.27564 248 ft 21 kts 231°
2026-04-18 05:46 53.35042 -2.27692 246 ft 7 kts 198°
2026-04-18 05:47 53.34994 -2.27696 245 ft 6 kts 176°
2026-04-18 05:47 53.34951 -2.27685 245 ft 7 kts 171°
2026-04-18 05:47 53.34878 -2.27666 241 ft 15 kts 173°
2026-04-18 05:47 53.34792 -2.27767 238 ft 28 kts 231°
2026-04-18 05:48 53.34478 -2.28419 232 ft 117 kts 231°
2026-04-18 05:48 53.33811 -2.29779 363 ft 172 kts 230°
2026-04-18 05:48 53.33060 -2.31274 1499 ft 163 kts 231°
2026-04-18 05:48 53.32339 -2.32664 2726 ft 154 kts 233°
2026-04-18 05:49 53.31666 -2.34076 3738 ft 158 kts 234°
2026-04-18 05:49 53.31095 -2.35805 4244 ft 185 kts 258°
2026-04-18 05:49 53.31322 -2.37993 4701 ft 208 kts 299°
2026-04-18 05:49 53.32464 -2.39657 5104 ft 234 kts 328°
2026-04-18 05:50 53.34071 -2.40733 5165 ft 256 kts 337°
2026-04-18 05:50 53.35788 -2.41645 5117 ft 260 kts 338°
2026-04-18 05:50 53.37529 -2.42541 5800 ft 259 kts 338°
2026-04-18 05:50 53.39261 -2.43441 6902 ft 262 kts 338°
2026-04-18 05:51 53.40991 -2.44353 7894 ft 267 kts 338°
2026-04-18 05:51 53.42850 -2.44902 8801 ft 280 kts 359°
2026-04-18 05:51 53.44768 -2.44058 9759 ft 295 kts 25°
2026-04-18 05:51 53.46405 -2.41860 10476 ft 316 kts 48°
2026-04-18 05:52 53.47554 -2.38508 10605 ft 350 kts 71°
2026-04-18 05:52 53.48170 -2.34391 10813 ft 377 kts 80°
2026-04-18 05:52 53.48625 -2.29989 11421 ft 382 kts 82°
2026-04-18 05:52 53.49054 -2.25564 12371 ft 388 kts 82°
2026-04-18 05:53 53.49648 -2.21105 13278 ft 394 kts 77°
2026-04-18 05:53 53.50278 -2.16597 14041 ft 398 kts 83°
2026-04-18 05:53 53.50693 -2.11985 14771 ft 403 kts 86°
2026-04-18 05:53 53.51067 -2.07286 15500 ft 408 kts 86°
2026-04-18 05:54 53.51466 -2.02544 16234 ft 413 kts 85°
2026-04-18 05:54 53.51905 -1.97736 16932 ft 419 kts 85°
2026-04-18 05:54 53.52370 -1.92872 17602 ft 423 kts 86°
2026-04-18 05:54 53.52462 -1.87966 18220 ft 417 kts 102°
2026-04-18 05:55 53.51933 -1.83195 18823 ft 415 kts 111°
2026-04-18 05:55 53.51126 -1.78523 19391 ft 417 kts 114°
2026-04-18 05:55 53.50228 -1.73873 19944 ft 421 kts 115°
2026-04-18 05:55 53.49317 -1.69172 20498 ft 425 kts 115°
2026-04-18 05:56 53.48418 -1.64413 21061 ft 430 kts 114°
2026-04-18 05:56 53.47531 -1.59595 21612 ft 434 kts 114°
2026-04-18 05:56 53.46644 -1.54723 22169 ft 438 kts 114°
2026-04-18 05:56 53.45755 -1.49802 22750 ft 443 kts 114°
2026-04-18 05:57 53.44266 -1.41511 23725 ft 450 kts 114°
2026-04-18 05:57 53.43049 -1.34735 24424 ft 456 kts 113°
2026-04-18 05:57 53.42129 -1.29629 24943 ft 460 kts 114°
2026-04-18 05:58 53.41195 -1.24479 25480 ft 464 kts 114°
2026-04-18 05:58 53.40571 -1.21051 25832 ft 466 kts 114°
2026-04-18 05:58 53.39618 -1.15830 26354 ft 471 kts 113°
2026-04-18 05:58 53.38682 -1.10710 26858 ft 475 kts 113°
2026-04-18 05:59 53.37712 -1.05404 27384 ft 479 kts 113°
2026-04-18 05:59 53.36731 -1.00046 27888 ft 483 kts 113°
2026-04-18 05:59 53.35417 -0.92893 28560 ft 488 kts 113°
2026-04-18 05:59 53.34739 -0.89209 28891 ft 491 kts 113°
2026-04-18 06:00 53.33745 -0.83818 29386 ft 495 kts 113°
2026-04-18 06:00 53.32723 -0.78301 29868 ft 499 kts 113°
2026-04-18 06:00 53.31703 -0.72805 30284 ft 503 kts 113°
2026-04-18 06:00 53.30642 -0.67130 30649 ft 506 kts 113°
2026-04-18 06:01 53.29595 -0.61585 31098 ft 507 kts 113°
2026-04-18 06:01 53.28521 -0.55897 31571 ft 507 kts 113°
2026-04-18 06:01 53.27460 -0.50277 32049 ft 506 kts 113°
2026-04-18 06:01 53.26401 -0.44678 32528 ft 506 kts 113°
2026-04-18 06:02 53.25337 -0.39078 32994 ft 505 kts 113°
2026-04-18 06:02 53.24274 -0.33495 33442 ft 505 kts 112°
2026-04-18 06:02 53.23209 -0.27920 33907 ft 504 kts 112°
2026-04-18 06:02 53.22142 -0.22352 34317 ft 503 kts 112°
2026-04-18 06:03 53.21074 -0.16790 34657 ft 503 kts 112°
2026-04-18 06:03 53.20020 -0.11307 34989 ft 503 kts 112°
2026-04-18 06:03 53.18937 -0.05686 35311 ft 502 kts 113°
2026-04-18 06:03 53.17878 -0.00226 35630 ft 502 kts 113°
2026-04-18 06:04 53.16800 0.05314 35939 ft 502 kts 113°
2026-04-18 06:04 53.15725 0.10827 36229 ft 502 kts 113°
2026-04-18 06:04 53.14645 0.16362 36526 ft 502 kts 113°
2026-04-18 06:04 53.13563 0.21894 36816 ft 501 kts 113°
2026-04-18 06:05 53.12482 0.27412 37066 ft 502 kts 113°
2026-04-18 06:05 53.10305 0.38477 37148 ft 504 kts 113°
2026-04-18 06:06 53.08116 0.49546 37151 ft 504 kts 113°
2026-04-18 06:06 53.05987 0.60254 37153 ft 504 kts 113°
2026-04-18 06:07 53.03778 0.71299 37157 ft 503 kts 113°
2026-04-18 06:07 53.01559 0.82326 37156 ft 503 kts 113°
2026-04-18 06:08 52.99334 0.93323 37160 ft 503 kts 113°
2026-04-18 06:08 52.97025 1.04264 37165 ft 501 kts 115°
2026-04-18 06:09 52.94571 1.15057 37172 ft 500 kts 116°
2026-04-18 06:09 52.92105 1.25851 37169 ft 500 kts 116°
2026-04-18 06:10 52.89651 1.36640 37173 ft 500 kts 115°
2026-04-18 06:10 52.87200 1.47408 37175 ft 500 kts 116°
2026-04-18 06:11 52.84739 1.58160 37181 ft 499 kts 116°
2026-04-18 06:11 52.82270 1.68894 37172 ft 499 kts 116°
2026-04-18 06:12 52.79809 1.79534 37170 ft 499 kts 116°
2026-04-18 06:12 52.77308 1.90293 37171 ft 498 kts 116°
2026-04-18 06:13 52.74829 2.00903 37168 ft 498 kts 116°
2026-04-18 06:13 52.72327 2.11559 37171 ft 498 kts 116°
2026-04-18 06:14 52.69835 2.22124 37171 ft 498 kts 116°
2026-04-18 06:14 52.67288 2.32745 37173 ft 498 kts 117°
2026-04-18 06:15 52.64714 2.43340 37170 ft 498 kts 117°
2026-04-18 06:15 52.62159 2.53942 37170 ft 498 kts 117°
2026-04-18 06:16 52.59607 2.64548 37171 ft 499 kts 117°
2026-04-18 06:16 52.57027 2.75123 37173 ft 498 kts 119°
2026-04-18 06:17 52.54168 2.85441 37173 ft 495 kts 121°
2026-04-18 06:17 52.51189 2.95646 37168 ft 495 kts 121°
2026-04-18 06:18 52.48218 3.05838 37167 ft 496 kts 121°
2026-04-18 06:18 52.45249 3.16061 37164 ft 496 kts 121°
2026-04-18 06:19 52.42278 3.26271 37161 ft 496 kts 121°
2026-04-18 06:19 52.39301 3.36460 37159 ft 496 kts 121°
2026-04-18 06:20 52.36318 3.46623 37163 ft 495 kts 122°
2026-04-18 06:20 52.33326 3.56768 37163 ft 495 kts 122°
2026-04-18 06:21 52.30331 3.66881 37168 ft 494 kts 122°
2026-04-18 06:21 52.27374 3.76826 37171 ft 493 kts 122°
2026-04-18 06:22 52.24369 3.86888 37185 ft 493 kts 122°
2026-04-18 06:22 52.21438 3.96656 37185 ft 492 kts 122°
2026-04-18 06:23 52.18385 4.06629 37182 ft 492 kts 122°
2026-04-18 06:23 52.15433 4.16280 37183 ft 491 kts 122°
2026-04-18 06:24 52.12402 4.26236 37178 ft 491 kts 122°
2026-04-18 06:24 52.09836 4.34660 37176 ft 490 kts 122°
2026-04-18 06:25 52.06803 4.44581 37183 ft 490 kts 122°
2026-04-18 06:25 52.03761 4.54485 37175 ft 490 kts 123°
2026-04-18 06:26 52.00731 4.64306 37179 ft 490 kts 123°
2026-04-18 06:26 51.97672 4.74183 37181 ft 490 kts 123°
2026-04-18 06:27 51.94608 4.84037 37183 ft 490 kts 123°
2026-04-18 06:27 51.91552 4.93826 37181 ft 490 kts 123°
2026-04-18 06:28 51.88468 5.03662 37185 ft 490 kts 123°
2026-04-18 06:28 51.85379 5.13477 37201 ft 490 kts 123°
2026-04-18 06:29 51.82255 5.23267 37192 ft 489 kts 123°
2026-04-18 06:29 51.79114 5.33022 37179 ft 489 kts 123°
2026-04-18 06:30 51.75991 5.42776 37182 ft 489 kts 123°
2026-04-18 06:30 51.72910 5.52409 37182 ft 489 kts 123°
2026-04-18 06:31 51.69785 5.62148 37182 ft 489 kts 123°
2026-04-18 06:31 51.66654 5.71862 37180 ft 489 kts 123°
2026-04-18 06:32 51.63512 5.81570 37180 ft 489 kts 123°
2026-04-18 06:32 51.60359 5.91271 37181 ft 489 kts 123°
2026-04-18 06:33 51.57201 6.00954 37186 ft 489 kts 123°
2026-04-18 06:33 51.54033 6.10627 37184 ft 489 kts 122°
2026-04-18 06:34 51.50875 6.20232 37180 ft 490 kts 122°
2026-04-18 06:34 51.47897 6.30167 37184 ft 493 kts 117°
2026-04-18 06:35 51.45365 6.40418 37181 ft 495 kts 115°
2026-04-18 06:35 51.42925 6.50644 37199 ft 494 kts 115°
2026-04-18 06:35 51.41689 6.55762 37096 ft 492 kts 115°
2026-04-18 06:36 51.40445 6.60862 36856 ft 490 kts 115°
2026-04-18 06:36 51.39195 6.65945 36414 ft 491 kts 115°
2026-04-18 06:36 51.37941 6.71016 35799 ft 489 kts 115°
2026-04-18 06:36 51.36688 6.76070 35215 ft 489 kts 115°
2026-04-18 06:37 51.35429 6.81133 34640 ft 489 kts 115°
2026-04-18 06:37 51.34168 6.86197 34024 ft 490 kts 115°
2026-04-18 06:37 51.32907 6.91250 33383 ft 491 kts 115°
2026-04-18 06:37 51.31638 6.96322 32772 ft 492 kts 115°
2026-04-18 06:38 51.30363 7.01410 32179 ft 493 kts 115°
2026-04-18 06:38 51.28999 7.06439 31567 ft 493 kts 119°
2026-04-18 06:38 51.27308 7.11161 30945 ft 490 kts 128°
2026-04-18 06:38 51.25142 7.15324 30326 ft 485 kts 139°
2026-04-18 06:39 51.22535 7.18714 29618 ft 480 kts 150°
2026-04-18 06:39 51.19665 7.21353 28972 ft 474 kts 156°
2026-04-18 06:39 51.16715 7.23630 28328 ft 469 kts 159°
2026-04-18 06:39 51.13764 7.25787 27726 ft 465 kts 159°
2026-04-18 06:40 51.10837 7.27968 27123 ft 462 kts 158°
2026-04-18 06:40 51.07960 7.30208 26536 ft 458 kts 157°
2026-04-18 06:40 51.05120 7.32490 26168 ft 457 kts 156°
2026-04-18 06:40 51.02296 7.34797 25498 ft 457 kts 156°
2026-04-18 06:41 50.99495 7.37105 24714 ft 451 kts 156°
2026-04-18 06:41 50.96729 7.39392 24020 ft 445 kts 155°
2026-04-18 06:41 50.93999 7.41645 23291 ft 442 kts 155°
2026-04-18 06:41 50.91283 7.43881 22603 ft 437 kts 155°
2026-04-18 06:42 50.88596 7.46087 21962 ft 433 kts 155°
2026-04-18 06:42 50.85928 7.48270 21403 ft 429 kts 155°
2026-04-18 06:42 50.83281 7.50430 20718 ft 426 kts 155°
2026-04-18 06:42 50.80661 7.52567 20069 ft 422 kts 155°
2026-04-18 06:43 50.78080 7.54669 19448 ft 419 kts 155°
2026-04-18 06:43 50.75534 7.56742 18854 ft 415 kts 155°
2026-04-18 06:43 50.72982 7.58818 18440 ft 412 kts 155°
2026-04-18 06:43 50.70441 7.60883 18201 ft 410 kts 155°
2026-04-18 06:44 50.67902 7.62938 17859 ft 412 kts 155°
2026-04-18 06:44 50.65365 7.64990 17202 ft 406 kts 155°
2026-04-18 06:44 50.62869 7.67010 16595 ft 403 kts 155°
2026-04-18 06:44 50.60387 7.69016 16223 ft 400 kts 155°
2026-04-18 06:45 50.58719 7.70363 15953 ft 398 kts 155°
2026-04-18 06:45 50.55456 7.72997 14965 ft 394 kts 155°
2026-04-18 06:45 50.53029 7.74956 14337 ft 390 kts 155°
2026-04-18 06:45 50.50624 7.76896 13727 ft 386 kts 155°
2026-04-18 06:46 50.48267 7.78795 13137 ft 381 kts 155°
2026-04-18 06:46 50.45917 7.80687 12564 ft 377 kts 155°
2026-04-18 06:46 50.44383 7.81938 12201 ft 374 kts 152°
2026-04-18 06:46 50.42171 7.84168 11661 ft 372 kts 146°
2026-04-18 06:47 50.40147 7.86577 11277 ft 369 kts 143°
2026-04-18 06:47 50.38150 7.89084 10993 ft 366 kts 142°
2026-04-18 06:47 50.36230 7.91524 10854 ft 346 kts 142°
2026-04-18 06:47 50.34407 7.93838 10728 ft 328 kts 142°
2026-04-18 06:48 50.32677 7.96019 10609 ft 312 kts 143°
2026-04-18 06:48 50.31025 7.98089 10485 ft 297 kts 143°
2026-04-18 06:48 50.29441 8.00067 10364 ft 288 kts 143°
2026-04-18 06:48 50.27885 8.02007 10242 ft 284 kts 142°
2026-04-18 06:49 50.26555 8.04279 10176 ft 286 kts 121°
2026-04-18 06:49 50.25803 8.07152 10190 ft 288 kts 108°
2026-04-18 06:49 50.25280 8.10172 10187 ft 288 kts 105°
2026-04-18 06:49 50.24838 8.13021 10185 ft 288 kts 104°
2026-04-18 06:50 50.24371 8.16061 10180 ft 288 kts 104°
2026-04-18 06:50 50.23902 8.19091 10179 ft 287 kts 105°
2026-04-18 06:50 50.23426 8.22127 10183 ft 287 kts 105°
2026-04-18 06:50 50.22947 8.25156 10179 ft 287 kts 105°
2026-04-18 06:51 50.22465 8.28182 10181 ft 287 kts 105°
2026-04-18 06:51 50.21979 8.31215 10177 ft 288 kts 105°
2026-04-18 06:51 50.21490 8.34237 10180 ft 287 kts 106°
2026-04-18 06:51 50.20765 8.37129 10170 ft 286 kts 123°
2026-04-18 06:52 50.19441 8.39375 10172 ft 281 kts 148°
2026-04-18 06:52 50.17705 8.40746 10181 ft 281 kts 159°
2026-04-18 06:52 50.15876 8.41813 10179 ft 281 kts 163°
2026-04-18 06:52 50.13971 8.42409 10172 ft 279 kts 180°
2026-04-18 06:53 50.12082 8.41909 10170 ft 276 kts 204°
2026-04-18 06:53 50.10537 8.40203 10169 ft 274 kts 230°
2026-04-18 06:53 50.09571 8.37666 10185 ft 275 kts 246°
2026-04-18 06:53 50.08869 8.34884 10187 ft 276 kts 250°
2026-04-18 06:54 50.08220 8.32081 10186 ft 276 kts 250°
2026-04-18 06:54 50.07571 8.29272 10185 ft 276 kts 250°
2026-04-18 06:54 50.06913 8.26459 10184 ft 276 kts 250°
2026-04-18 06:54 50.06250 8.23659 10182 ft 276 kts 249°
2026-04-18 06:55 50.05581 8.20858 10182 ft 276 kts 249°
2026-04-18 06:55 50.04910 8.18063 10184 ft 276 kts 249°
2026-04-18 06:55 50.04235 8.15266 10183 ft 276 kts 249°
2026-04-18 06:55 50.03557 8.12470 10176 ft 276 kts 249°
2026-04-18 06:56 50.02878 8.09682 10177 ft 276 kts 249°
2026-04-18 06:56 50.02195 8.06892 10180 ft 276 kts 249°
2026-04-18 06:56 50.01513 8.04104 10180 ft 276 kts 249°
2026-04-18 06:56 50.00831 8.01317 10180 ft 276 kts 249°
2026-04-18 06:57 50.00148 7.98533 10178 ft 276 kts 249°
2026-04-18 06:57 49.98779 7.92959 10178 ft 276 kts 249°
2026-04-18 06:57 49.98095 7.90174 10172 ft 274 kts 249°
2026-04-18 06:58 49.97318 7.87496 9587 ft 275 kts 234°
2026-04-18 06:58 49.95906 7.85548 9178 ft 273 kts 208°
2026-04-18 06:58 49.94085 7.84822 8745 ft 273 kts 181°
2026-04-18 06:58 49.92245 7.85480 8328 ft 274 kts 153°
2026-04-18 06:59 49.90826 7.87396 8085 ft 274 kts 125°
2026-04-18 06:59 49.90131 7.90102 7879 ft 278 kts 98°
2026-04-18 06:59 49.90192 7.93076 7706 ft 278 kts 83°
2026-04-18 06:59 49.90494 7.96095 7495 ft 279 kts 81°
2026-04-18 07:00 49.90804 7.99024 7157 ft 278 kts 81°
2026-04-18 07:00 49.91117 8.01976 6766 ft 276 kts 81°
2026-04-18 07:00 49.91428 8.04906 6342 ft 275 kts 81°
2026-04-18 07:00 49.91739 8.07839 5934 ft 275 kts 81°
2026-04-18 07:01 49.92047 8.10752 5553 ft 271 kts 81°
2026-04-18 07:01 49.92345 8.13566 5285 ft 256 kts 81°
2026-04-18 07:01 49.92604 8.16201 5181 ft 243 kts 83°
2026-04-18 07:01 49.93005 8.18734 4905 ft 240 kts 65°
2026-04-18 07:02 49.93815 8.20931 4556 ft 229 kts 58°
2026-04-18 07:02 49.94615 8.23012 4254 ft 219 kts 60°
2026-04-18 07:02 49.95312 8.25009 4179 ft 204 kts 63°
2026-04-18 07:02 49.95943 8.26974 4150 ft 204 kts 64°
2026-04-18 07:03 49.96543 8.28963 3990 ft 199 kts 66°
2026-04-18 07:03 49.97104 8.30921 3991 ft 196 kts 67°
2026-04-18 07:03 49.97645 8.32853 3810 ft 196 kts 66°
2026-04-18 07:03 49.98188 8.34736 3416 ft 184 kts 66°
2026-04-18 07:04 49.98672 8.36502 2927 ft 173 kts 68°
2026-04-18 07:04 49.99104 8.38204 2380 ft 167 kts 68°
2026-04-18 07:04 49.99519 8.39893 1763 ft 161 kts 68°
2026-04-18 07:04 49.99912 8.41522 1733 ft 159 kts 68°
2026-04-18 07:05 50.00303 8.43150 1595 ft 160 kts 69°
2026-04-18 07:05 50.00690 8.44769 1474 ft 160 kts 69°
2026-04-18 07:05 50.01076 8.46385 1302 ft 159 kts 69°
2026-04-18 07:05 50.01461 8.48002 1098 ft 158 kts 69°
2026-04-18 07:06 50.01842 8.49596 892 ft 157 kts 69°
2026-04-18 07:06 50.02221 8.51182 717 ft 156 kts 69°
2026-04-18 07:06 50.02599 8.52747 473 ft 154 kts 69°
2026-04-18 07:06 50.02967 8.54290 353 ft 139 kts 70°
2026-04-18 07:07 50.03229 8.55396 356 ft 80 kts 70°
2026-04-18 07:07 50.03364 8.55965 362 ft 33 kts 70°
2026-04-18 07:07 50.03454 8.56253 366 ft 28 kts 51°
2026-04-18 07:07 50.03577 8.56426 360 ft 19 kts 39°
2026-04-18 07:08 50.03667 8.56538 362 ft 8 kts 34°
2026-04-18 07:08 50.03677 8.56541 361 ft 2 kts 13°
2026-04-18 07:08 50.03697 8.56526 367 ft 5 kts 324°
2026-04-18 07:08 50.03715 8.56469 366 ft 7 kts 284°
2026-04-18 07:09 50.03709 8.56387 365 ft 10 kts 255°
2026-04-18 07:09 50.03680 8.56250 367 ft 16 kts 250°
2026-04-18 07:09 50.03634 8.56057 365 ft 21 kts 250°
2026-04-18 07:09 50.03582 8.55843 362 ft 21 kts 249°
2026-04-18 07:10 50.03530 8.55628 361 ft 21 kts 249°
2026-04-18 07:10 50.03474 8.55398 360 ft 25 kts 249°
2026-04-18 07:10 50.03410 8.55132 356 ft 22 kts 249°
2026-04-18 07:10 50.03394 8.54994 356 ft 12 kts 278°
2026-04-18 07:11 50.03427 8.54881 359 ft 11 kts 308°
2026-04-18 07:11 50.03508 8.54811 356 ft 16 kts 340°
2026-04-18 07:11 50.03628 8.54742 356 ft 21 kts 339°
2026-04-18 07:11 50.03756 8.54757 362 ft 17 kts 50°
2026-04-18 07:12 50.03800 8.54912 364 ft 15 kts 68°
2026-04-18 07:12 50.03853 8.55011 364 ft 10 kts 16°
2026-04-18 07:12 50.03937 8.54987 365 ft 14 kts 340°
2026-04-18 07:12 50.03990 8.54932 367 ft 4 kts 288°
2026-04-18 07:13 50.03977 8.54849 367 ft 12 kts 251°
2026-04-18 07:13 50.03979 8.54701 362 ft 15 kts 305°
2026-04-18 07:13 50.04015 8.54602 364 ft 5 kts 269°
2026-04-18 07:13 50.04009 8.54567 364 ft 2 kts 253°
2026-04-18 07:14 50.04004 8.54549 365 ft 1 kts 249°
2026-04-18 07:14 50.04001 8.54536 365 ft 0 kts 249°